�������l�o���
Date,Time,MP-1(��Sv/h),MP-2(��Sv/h),MP-3(��Sv/h),MP-4(��Sv/h),MP-5(��Sv/h),MP-6(��Sv/h),MP-7(��Sv/h),MP-8(��Sv/h),����,����(m/s),���J
2021/09/13,00:00,0.597,0.886,0.562,1.073,0.757,0.364,0.625,0.585,�k�k��,1.1,��
2021/09/13,00:10,0.597,0.886,0.560,1.072,0.758,0.364,0.624,0.587,�k�k��,1.2,��
2021/09/13,00:20,0.597,0.886,0.561,1.072,0.758,0.362,0.625,0.586,�k�k��,2.0,��
2021/09/13,00:30,0.595,0.886,0.560,1.071,0.759,0.363,0.627,0.584,���k��,1.1,��
2021/09/13,00:40,0.595,0.887,0.559,1.073,0.757,0.363,0.626,0.587,�k�k��,0.9,��
2021/09/13,00:50,0.594,0.885,0.560,1.073,0.757,0.363,0.626,0.586,���k��,3.9,��
2021/09/13,01:00,0.595,0.886,0.561,1.072,0.759,0.365,0.625,0.585,��,4.8,��
2021/09/13,01:10,0.593,0.886,0.560,1.071,0.759,0.362,0.625,0.584,���k��,4.0,��
2021/09/13,01:20,0.595,0.887,0.560,1.073,0.760,0.363,0.625,0.585,��,3.1,��
2021/09/13,01:30,0.597,0.885,0.562,1.074,0.758,0.364,0.626,0.585,��,2.2,��
2021/09/13,01:40,0.596,0.886,0.561,1.075,0.759,0.362,0.626,0.585,��,0.9,��
2021/09/13,01:50,0.596,0.886,0.560,1.073,0.758,0.362,0.624,0.586,��쓌,1.5,��
2021/09/13,02:00,0.593,0.888,0.561,1.072,0.758,0.361,0.625,0.586,��,1.4,��
2021/09/13,02:10,0.595,0.886,0.561,1.075,0.758,0.363,0.624,0.586,��,3.7,��
2021/09/13,02:20,0.596,0.886,0.561,1.074,0.758,0.362,0.626,0.586,��,2.3,��
2021/09/13,02:30,0.595,0.885,0.560,1.074,0.757,0.363,0.626,0.588,���쐼,4.4,��
2021/09/13,02:40,0.594,0.886,0.561,1.075,0.757,0.363,0.627,0.585,��,5.7,��
2021/09/13,02:50,0.595,0.887,0.561,1.072,0.759,0.364,0.625,0.585,��,6.4,��
2021/09/13,03:00,0.595,0.884,0.559,1.072,0.760,0.363,0.626,0.585,��,5.0,��
2021/09/13,03:10,0.595,0.886,0.560,1.073,0.760,0.362,0.626,0.587,���k��,7.1,��
2021/09/13,03:20,0.595,0.886,0.560,1.074,0.757,0.362,0.626,0.585,���k��,6.6,��
2021/09/13,03:30,0.594,0.886,0.560,1.072,0.758,0.362,0.626,0.585,��,4.9,��
2021/09/13,03:40,0.596,0.885,0.559,1.075,0.760,0.362,0.625,0.586,���k��,3.6,��
2021/09/13,03:50,0.594,0.887,0.561,1.073,0.759,0.363,0.625,0.586,�k��,2.2,��
2021/09/13,04:00,0.595,0.886,0.560,1.074,0.758,0.362,0.626,0.586,�k��,1.5,��
2021/09/13,04:10,0.594,0.885,0.560,1.074,0.759,0.363,0.625,0.584,���k��,1.4,��
2021/09/13,04:20,0.594,0.886,0.561,1.074,0.760,0.362,0.626,0.587,��,2.0,��
2021/09/13,04:30,0.594,0.886,0.560,1.074,0.758,0.362,0.624,0.584,���쐼,2.5,��
2021/09/13,04:40,0.594,0.884,0.560,1.075,0.758,0.363,0.625,0.585,��,3.4,��
2021/09/13,04:50,0.593,0.885,0.560,1.075,0.757,0.363,0.625,0.584,��,3.1,��
2021/09/13,05:00,0.595,0.885,0.559,1.072,0.758,0.362,0.625,0.587,���쐼,3.1,��
2021/09/13,05:10,0.594,0.888,0.559,1.074,0.759,0.363,0.626,0.586,�k��,0.8,��
2021/09/13,05:20,0.594,0.887,0.559,1.073,0.760,0.364,0.626,0.586,�k�k��,2.3,��
2021/09/13,05:30,0.595,0.886,0.560,1.077,0.759,0.363,0.626,0.585,�k��,2.3,��
2021/09/13,05:40,0.595,0.887,0.559,1.074,0.759,0.364,0.626,0.585,�k�k��,3.0,��
2021/09/13,05:50,0.594,0.884,0.560,1.075,0.758,0.363,0.624,0.585,�k�k��,3.8,��
2021/09/13,06:00,0.594,0.886,0.560,1.074,0.760,0.362,0.626,0.584,�k�k��,4.1,��
2021/09/13,06:10,0.594,0.883,0.563,1.074,0.757,0.362,0.625,0.587,�k��,3.2,��
2021/09/13,06:20,0.595,0.884,0.561,1.074,0.759,0.363,0.625,0.584,���k��,4.5,��
2021/09/13,06:30,0.593,0.887,0.560,1.074,0.758,0.363,0.625,0.585,�k��,3.8,��
2021/09/13,06:40,0.595,0.885,0.561,1.075,0.759,0.362,0.625,0.584,�k�k��,4.7,��
2021/09/13,06:50,0.596,0.887,0.560,1.075,0.760,0.364,0.625,0.586,�k�k��,4.9,��
2021/09/13,07:00,0.595,0.887,0.559,1.075,0.758,0.363,0.625,0.586,�k�k��,4.5,��
2021/09/13,07:10,0.597,0.887,0.560,1.076,0.760,0.363,0.626,0.587,�k�k��,3.4,��
2021/09/13,07:20,0.594,0.888,0.561,1.076,0.760,0.364,0.626,0.585,�k�k��,1.2,��
2021/09/13,07:30,0.596,0.887,0.561,1.074,0.760,0.363,0.625,0.586,���k��,0.6,��
2021/09/13,07:40,0.595,0.887,0.562,1.074,0.760,0.362,0.623,0.585,�k�k��,1.7,��
2021/09/13,07:50,0.595,0.888,0.561,1.077,0.762,0.362,0.624,0.585,�k�k��,0.9,��
2021/09/13,08:00,0.593,0.887,0.561,1.075,0.758,0.363,0.626,0.586,�k�k��,1.1,��
2021/09/13,08:10,0.594,0.887,0.560,1.074,0.759,0.362,0.624,0.585,�k��,1.5,��
2021/09/13,08:20,0.593,0.886,0.561,1.074,0.758,0.362,0.624,0.584,�k��,2.5,��
2021/09/13,08:30,0.594,0.886,0.560,1.074,0.759,0.361,0.625,0.585,�k��,1.9,��
2021/09/13,08:40,0.594,0.883,0.561,1.075,0.757,0.363,0.624,0.584,�k��,1.7,��
2021/09/13,08:50,0.596,0.887,0.562,1.073,0.759,0.360,0.623,0.583,�k�k��,0.8,��
2021/09/13,09:00,0.595,0.883,0.560,1.073,0.759,0.363,0.623,0.585,�k��,1.2,��
2021/09/13,09:10,0.595,0.884,0.558,1.076,0.759,0.360,0.625,0.584,�k�k��,1.2,��
2021/09/13,09:20,0.594,0.884,0.560,1.078,0.760,0.361,0.624,0.583,�k�k��,2.2,��
2021/09/13,09:30,0.594,0.883,0.559,1.073,0.759,0.361,0.623,0.583,�k��,1.9,��
2021/09/13,09:40,0.594,0.886,0.559,1.077,0.759,0.361,0.624,0.583,�k��,3.0,��
2021/09/13,09:50,0.594,0.885,0.559,1.075,0.757,0.362,0.622,0.583,�k��,2.5,��
2021/09/13,10:00,0.594,0.885,0.559,1.075,0.759,0.359,0.626,0.584,�k��,3.1,��
2021/09/13,10:10,0.593,0.887,0.560,1.074,0.758,0.362,0.626,0.584,�k��,3.8,��
2021/09/13,10:20,0.595,0.885,0.559,1.078,0.759,0.361,0.626,0.584,�k��,3.6,��
2021/09/13,10:30,0.595,0.885,0.557,1.078,0.760,0.363,0.626,0.586,�k��,3.2,��
2021/09/13,10:40,0.594,0.886,0.560,1.077,0.758,0.362,0.625,0.583,�k�k��,2.8,��
2021/09/13,10:50,0.595,0.882,0.560,1.077,0.760,0.362,0.625,0.583,���k��,2.3,��
2021/09/13,11:00,0.594,0.883,0.560,1.077,0.757,0.362,0.625,0.584,�k��,3.2,��
2021/09/13,11:10,0.595,0.885,0.561,1.075,0.758,0.362,0.623,0.583,�k��,3.0,��
2021/09/13,11:20,0.597,0.886,0.559,1.077,0.760,0.362,0.625,0.584,��,2.3,��
2021/09/13,11:30,0.596,0.887,0.561,1.080,0.761,0.362,0.624,0.584,��,2.2,��
2021/09/13,11:40,0.594,0.887,0.560,1.078,0.762,0.363,0.625,0.584,���쓌,3.0,��
2021/09/13,11:50,0.594,0.888,0.562,1.075,0.762,0.363,0.626,0.585,���쓌,3.8,��
2021/09/13,12:00,0.597,0.891,0.560,1.078,0.762,0.361,0.625,0.584,���쓌,3.9,��
2021/09/13,12:10,0.597,0.891,0.561,1.078,0.761,0.364,0.625,0.584,���쓌,4.0,��
2021/09/13,12:20,0.596,0.890,0.560,1.078,0.760,0.362,0.627,0.584,���쓌,4.0,��
2021/09/13,12:30,0.595,0.889,0.559,1.076,0.761,0.361,0.626,0.585,���쓌,2.8,��
2021/09/13,12:40,0.597,0.891,0.561,1.078,0.762,0.363,0.626,0.585,���쓌,3.2,��
2021/09/13,12:50,0.598,0.892,0.561,1.078,0.762,0.363,0.626,0.586,���쓌,3.5,��
2021/09/13,13:00,0.596,0.890,0.561,1.079,0.763,0.363,0.627,0.584,���쓌,2.6,��
2021/09/13,13:10,0.597,0.892,0.562,1.078,0.764,0.362,0.626,0.586,�쓌,2.2,��
2021/09/13,13:20,0.597,0.891,0.561,1.077,0.763,0.362,0.625,0.586,�쓌,3.3,��
2021/09/13,13:30,0.598,0.890,0.561,1.081,0.763,0.363,0.626,0.585,��쓌,3.1,��
2021/09/13,13:40,0.596,0.889,0.561,1.078,0.764,0.363,0.626,0.585,��쓌,3.2,��
2021/09/13,13:50,0.597,0.892,0.562,1.079,0.763,0.363,0.626,0.585,�쓌,4.5,��
2021/09/13,14:00,0.598,0.887,0.562,1.079,0.763,0.362,0.626,0.584,�쓌,4.1,��
2021/09/13,14:10,0.597,0.891,0.562,1.081,0.764,0.363,0.627,0.583,�쓌,3.2,��
2021/09/13,14:20,0.598,0.892,0.561,1.080,0.766,0.363,0.626,0.585,�쓌,4.0,��
2021/09/13,14:30,0.598,0.891,0.563,1.082,0.764,0.364,0.627,0.586,�쓌,3.3,��
2021/09/13,14:40,0.599,0.892,0.561,1.081,0.766,0.363,0.626,0.586,�쓌,2.5,��
2021/09/13,14:50,0.598,0.891,0.564,1.081,0.764,0.364,0.628,0.585,��쓌,4.2,��
2021/09/13,15:00,0.597,0.893,0.561,1.080,0.764,0.363,0.628,0.586,��쓌,4.4,��
2021/09/13,15:10,0.599,0.894,0.563,1.082,0.764,0.362,0.627,0.586,�쓌,5.1,��
2021/09/13,15:20,0.597,0.895,0.562,1.081,0.767,0.364,0.629,0.586,�쓌,3.9,��
2021/09/13,15:30,0.597,0.893,0.563,1.080,0.766,0.364,0.627,0.585,�쓌,3.1,��
2021/09/13,15:40,0.597,0.895,0.561,1.080,0.765,0.363,0.627,0.585,�쓌,3.0,��
2021/09/13,15:50,0.597,0.894,0.561,1.081,0.764,0.362,0.626,0.585,��쓌,2.9,��
2021/09/13,16:00,0.598,0.897,0.563,1.079,0.765,0.363,0.628,0.585,��,2.6,��
2021/09/13,16:10,0.600,0.896,0.561,1.076,0.764,0.365,0.628,0.584,��,3.3,��
2021/09/13,16:20,0.599,0.897,0.563,1.079,0.763,0.362,0.627,0.586,��,3.0,��
2021/09/13,16:30,0.596,0.895,0.561,1.078,0.769,0.363,0.627,0.584,��,2.8,��
2021/09/13,16:40,0.599,0.895,0.564,1.079,0.764,0.364,0.626,0.585,��쐼,2.8,��
2021/09/13,16:50,0.597,0.895,0.563,1.079,0.766,0.362,0.628,0.583,��쐼,2.0,��
2021/09/13,17:00,0.597,0.897,0.561,1.082,0.766,0.362,0.627,0.585,���쐼,2.0,��
2021/09/13,17:10,0.598,0.897,0.562,1.080,0.763,0.364,0.627,0.586,��쓌,0.9,��
2021/09/13,17:20,0.599,0.895,0.563,1.078,0.764,0.364,0.627,0.586,��쓌,1.5,��
2021/09/13,17:30,0.596,0.896,0.564,1.078,0.767,0.363,0.628,0.588,�k�k��,0.8,��
2021/09/13,17:40,0.599,0.894,0.562,1.079,0.768,0.365,0.629,0.587,�k��,1.4,��
2021/09/13,17:50,0.600,0.897,0.560,1.082,0.767,0.365,0.629,0.587,�k��,2.9,��
2021/09/13,18:00,0.600,0.899,0.561,1.083,0.769,0.365,0.628,0.589,�k��,3.9,��
2021/09/13,18:10,0.599,0.895,0.563,1.082,0.768,0.363,0.627,0.587,�k��,4.9,��
2021/09/13,18:20,0.599,0.898,0.563,1.083,0.768,0.365,0.629,0.586,�k��,4.3,��
2021/09/13,18:30,0.600,0.898,0.564,1.084,0.768,0.365,0.629,0.585,�k��,5.1,��
2021/09/13,18:40,0.600,0.897,0.565,1.082,0.769,0.364,0.629,0.587,�k��,5.4,��
2021/09/13,18:50,0.599,0.896,0.563,1.084,0.768,0.363,0.630,0.586,�k��,6.3,��
2021/09/13,19:00,0.598,0.895,0.565,1.082,0.768,0.364,0.626,0.587,�k��,5.7,��
2021/09/13,19:10,0.600,0.895,0.564,1.084,0.768,0.364,0.628,0.587,���k��,5.0,��
2021/09/13,19:20,0.599,0.898,0.563,1.083,0.769,0.363,0.629,0.587,���k��,4.0,��
2021/09/13,19:30,0.599,0.896,0.563,1.083,0.767,0.364,0.630,0.587,���k��,3.3,��
2021/09/13,19:40,0.600,0.894,0.563,1.082,0.767,0.364,0.629,0.586,���k��,2.3,��
2021/09/13,19:50,0.600,0.898,0.563,1.085,0.768,0.363,0.629,0.589,���k��,2.3,��
2021/09/13,20:00,0.598,0.897,0.564,1.083,0.768,0.364,0.627,0.587,�k��,3.6,��
2021/09/13,20:10,0.598,0.895,0.563,1.084,0.767,0.365,0.628,0.587,�k��,4.9,��
2021/09/13,20:20,0.598,0.895,0.561,1.086,0.768,0.365,0.629,0.586,�k��,4.4,��
2021/09/13,20:30,0.598,0.897,0.563,1.084,0.767,0.363,0.628,0.587,�k��,3.7,��
2021/09/13,20:40,0.598,0.897,0.562,1.084,0.765,0.365,0.628,0.587,��,3.2,��
2021/09/13,20:50,0.597,0.897,0.560,1.084,0.767,0.363,0.629,0.586,���k��,3.9,��
2021/09/13,21:00,0.599,0.896,0.562,1.083,0.769,0.365,0.628,0.587,�k�k��,1.7,��
2021/09/13,21:10,0.599,0.895,0.565,1.081,0.768,0.366,0.628,0.588,�k��,2.8,��
2021/09/13,21:20,0.599,0.896,0.562,1.082,0.768,0.364,0.628,0.587,�k�k��,3.6,��
2021/09/13,21:30,0.598,0.895,0.563,1.084,0.766,0.363,0.628,0.588,�k��,4.1,��
2021/09/13,21:40,0.598,0.894,0.562,1.084,0.768,0.364,0.628,0.588,�k��,4.8,��
2021/09/13,21:50,0.601,0.896,0.560,1.085,0.769,0.364,0.629,0.587,�k��,3.9,��
2021/09/13,22:00,0.598,0.894,0.561,1.085,0.767,0.363,0.628,0.588,�k�k��,3.2,��
2021/09/13,22:10,0.598,0.896,0.562,1.084,0.768,0.362,0.628,0.587,�k��,3.6,��
2021/09/13,22:20,0.599,0.894,0.563,1.084,0.768,0.363,0.628,0.587,���k��,3.9,��
2021/09/13,22:30,0.598,0.898,0.563,1.085,0.769,0.363,0.628,0.586,���k��,4.2,��
2021/09/13,22:40,0.597,0.895,0.560,1.087,0.769,0.364,0.629,0.587,���k��,3.9,��
2021/09/13,22:50,0.598,0.893,0.555,1.085,0.767,0.364,0.628,0.589,���k��,3.2,��
2021/09/13,23:00,0.599,0.895,0.558,1.087,0.767,0.364,0.629,0.587,���k��,3.2,��
2021/09/13,23:10,0.598,0.895,0.560,1.084,0.770,0.365,0.628,0.586,���k��,2.6,��
2021/09/13,23:20,0.597,0.894,0.558,1.085,0.767,0.364,0.627,0.588,�k��,2.2,��
2021/09/13,23:30,0.597,0.895,0.558,1.087,0.768,0.364,0.627,0.586,�k��,2.0,��
2021/09/13,23:40,0.599,0.896,0.561,1.084,0.768,0.362,0.627,0.588,�k��,2.0,��
2021/09/13,23:50,0.600,0.895,0.561,1.085,0.767,0.364,0.627,0.586,�k��,1.9,��
